Regional Weather Roundup
Issued by NWS

Home | Current Version | Previous Version | Text Only | Print | Product List | Glossary Off
Versions: 1 2 3 4 5 6 7 8 9 10 11 12 13 14 15 16 17 18 19 20 21 22 23 24 25 26 27 28 29 30 31 32 33 34 35 36 37 38 39 40 41 42 43 44 45 46 47 48 49 50

000
ASUS43 KOAX 290202
RWRNE

WEATHER ROUNDUP FOR NEBRASKA
NATIONAL WEATHER SERVICE OMAHA NE
900 PM CDT MON JUL 28 2014

NOTES: SATELLITE DATA IS BEING USED TO AUGMENT CLOUD COVER ABOVE
       12000 FEET.
       "FAIR" INDICATES FEW OR NO CLOUDS BELOW 12,000 FEET WITH NO
       SIGNIFICANT WEATHER AND/OR OBSTRUCTIONS TO VISIBILITY.

  * THESE STATIONS DO NOT REPORT WEATHER SUCH AS RAIN...SNOW OR FOG.

NEZ001>004-019>022-054>056-290300-
NEBRASKA PANHANDLE

CITY           SKY/WX    TMP DP  RH WIND       PRES   REMARKS
SCOTTSBLUFF    CLEAR     79  61  53 E8        30.19R
ALLIANCE       CLEAR     79  57  46 E15       30.20S
CHADRON        CLEAR     80  55  42 E15       30.18R
KIMBALL        CLOUDY    71  61  69 S14       30.26R
SIDNEY         MOCLDY    79  54  41 SE9       30.24R
$$

NEZ057>060-069>072-079>082-290300-
SOUTHWEST NEBRASKA

CITY           SKY/WX    TMP DP  RH WIND       PRES   REMARKS
NORTH PLATTE   CLEAR     72  59  63 SE8       30.20S
IMPERIAL       MOCLDY    82  52  35 S8        30.19S
LEXINGTON      CLEAR     73  61  66 E8        30.20S
MCCOOK         PTCLDY    76  59  55 E15       30.18S
OGALLALA       CLEAR     75  59  58 E14       30.20S
$$

NEZ005>010-023>029-035>040-094-290300-
NORTH CENTRAL NEBRASKA

CITY           SKY/WX    TMP DP  RH WIND       PRES   REMARKS
VALENTINE      CLEAR     74  52  46 NE8       30.22S
BROKEN BOW     CLEAR     70  59  68 E7        30.22S
O`NEILL        CLEAR     68  55  62 E6        30.23R
ORD            CLEAR     69  58  67 E3        30.20S
THEDFORD       CLEAR     75  57  54 SE6       30.23S
$$

NEZ041-046>049-061>064-073>077-083>087-290300-
SOUTH CENTRAL NEBRASKA

CITY           SKY/WX    TMP DP  RH WIND       PRES   REMARKS
GRAND ISLAND   CLEAR     70  57  63 E7        30.22S
AURORA         CLEAR     67  60  77 E5        30.22S
HASTINGS       CLEAR     71  56  58 E8        30.21S
HEBRON         CLEAR     69  57  64 NE5       30.20S
HOLDREGE       CLEAR     70  60  71 E8        30.20S
KEARNEY *      CLEAR     70  57  64 NE6       30.21S
YORK           CLEAR     66  59  77 NE5       30.22S
$$

NEZ011>018-030>034-042>045-290300-
NORTHEAST NEBRASKA

CITY           SKY/WX    TMP DP  RH WIND       PRES   REMARKS
NORFOLK        CLEAR     69  53  56 N3        30.21S
ALBION         CLEAR     65  57  75 E5        30.22S
BLAIR          CLEAR     68  56  65 NW3       30.18F
COLUMBUS *     CLEAR     66  54  63 CALM      30.21S
FREMONT        CLEAR     68  57  67 NW3       30.19S
TEKAMAH        CLEAR     67  58  72 NW7       30.18S
WAYNE          CLEAR     65  59  83 CALM      30.21S
$$

NEZ050>053-065>068-078-088>093-290300-
SOUTHEAST NEBRASKA

CITY           SKY/WX    TMP DP  RH WIND       PRES   REMARKS
LINCOLN        CLEAR     69  54  58 N6        30.20S
OMAHA EPPLEY   PTCLDY    69  56  62 NW6       30.17S
BEATRICE       CLEAR     65  58  78 N5        30.20S
FALLS CITY     CLEAR     70  56  61 NW3       30.16S
NEBRASKA CITY  CLEAR     68  55  62 NW5       30.18S
PLATTSMOUTH    CLEAR     69  55  61 CALM      30.18S
$$

NEZ044-045-051>053-067-290300-
OMAHA AREA

CITY           SKY/WX    TMP DP  RH WIND       PRES   REMARKS
OMAHA EPPLEY   PTCLDY    69  56  62 NW6       30.17S
BLAIR          CLEAR     68  56  65 NW3       30.18F
FREMONT        CLEAR     68  57  67 NW3       30.19S
MILLARD        CLEAR     73  55  53 NW3       30.18S
OFFUTT AFB     CLEAR     70  56  62 N3        30.17S
PLATTSMOUTH    CLEAR     69  55  61 CALM      30.18S
WAHOO          FAIR      66  58  74 NW6       30.19S
$$



USA.gov is the U.S. government's official web portal to all federal, state and local government web resources and services.